Showing default

ICEYE-X36, 59103

Orbit data source: Space-Track

ICEYE-X36, 59103 is a payload satellite owned by ICEYE US (US) in SSO that was launched on Mon, 04 Mar 2024 UTC via an FALCON 9 launch vehicle from the Air Force Western Test Range (AFWTR). Payload-class satellites include a variety of spacecraft equipped with specific instruments for various scientific and technological missions. These include communications satellites like Starlink; space stations such as the ISS; scientific satellites like the Hubble; Earth observation satellites from companies like Planet Labs, Umbra, and HawkEye 360; GPS; miniature CubeSats for education and research; and military/defense satellites.

Loading next visibility...
Identifier
59103, 2024-043F
Orbit
SSO
Country
Flag of USUS
Related business
Manufacturer
ICEYE US
Mission
Operational Commercial Radar Imaging
Bus & Motor
ICEYE, Unknown motor
Mass
90 kg wet, 89 kg dry
Launch date (UTC)
2024-03-04 (2 years ago)
Launch vehicle
FALCON 9
Launch site
Air Force Western Test Range (AFWTR)
Object type
Payload
Rocket body
Debris
Shape & HBR
Box + 1 Pan, 1.6 m
Radar Cross Section
0.825 m², Medium (>0.1 m² and < 1m²)

Expand to show TLE details & history
Last TLE update: 15 hours ago

TLE from 15 hours ago
0 ICEYE-X36
1 59103U 24043F   26235.56777850  .00002845  00000-0  19183-3 0  9998
2 59103  97.8448  14.8979 0007509  93.6534 266.5552 15.07480051135291
Epoch: 2026-08-23T13:37Z
TLE epoch observation values (Epoch: 2026-08-23T13:37:36.062Z)
Latitude
-0.00001°
Longitude
-161.36433°
Altitude
547.28 km
Speed
7.588 km/s
True Right ascension
00h 59m 35s
True Declination
0° 00' 00"
Sunlit
Object was in full shadow at epoch
Visualization orbit readout
Latitude
Unknown
Longitude
Unknown
Altitude
Unknown
Speed
Unknown
Apparent Right ascension
Unknown
Apparent Declination
Unknown
Sunlit
N/A
Visualization observer readout
Local Sidereal Time
19:32:19
Azimuth
Unknown
Elevation
Unknown
Doppler factor
Unknown
Orbital elements
Apogee altitude
546.101 km
Perigee altitude
535.71 km
Semi-major axis
6,919.042 km
Eccentricity
0.00075
Inclination
97.8448°
RAAN
14.8979°
Arg. of periapsis
93.6534°
True anomaly
266.46931°
Mean anomaly
266.5552°
Eccentric anomaly
266.51226°
Mean motion
3.77115 °/min
Orbital period
95.46 mins
BSTAR
0.00019183
Loading maneuver chart data...
Computing Atmospheric mass density...
Loading historical data...
Loading historical data...
Loading historical data...
Loading historical data...
Loading historical data...
Loading historical data...
Loading historical data...

Documentation

Showing up to 5 results
|